C/2014 W5 ( Lemmon-PanSTARRS )

Japanese version
Home page
Updated on October 26, 2015

---------------------------------------------------------------------

* Profile

Discovery Date November 16 and 20, 2014
Magnitude 19.7 mag, 21.4 mag
Discoverer A. D. Grauer (Mount Lemmon Survey), Pan-STARRS 1 telescope (Haleakala)

* Pictures

* Orbital Elements

T 2016 Feb. 11.35583 TT                                 MPCW
q   2.5794165            (2000.0)            P               Q
                   Peri.  277.22021     +0.69905650     -0.50588039
                   Node   245.54305     -0.19929517     -0.81658593
e   1.0            Incl.  146.27606     -0.68673244     -0.27797921
From 34 observations 2014 Nov. 16-22.

* Finding Charts

* Magnitudes Graph

        m1 = 13.0 + 5 log d + 10.0 log r(t + 450)

        * Gray curve is:  m1 = 10.0 + 5 log d + 10.0 log r

---------------------------------------------------------------------

The orbital elements are published on M.P.E.C. 2014-W68.
The charts are made with StellaNavigator Ver.8 (AstroArts).
The magnitudes graphs are made with Comet for Windows.

---------------------------------------------------------------------

Copyright(C) Seiichi Yoshida (comet@aerith.net). All rights reserved.